Time,TemperatureF,DewpointF,PressureIn,WindDirection,WindDirectionDegrees,WindSpeedMPH,WindSpeedGustMPH,Humidity,HourlyPrecipIn,Conditions,Clouds,dailyrainin,SoftwareType,DateUTC
2013-06-22 10:02:00,82.0,72.0,30.00,NE,49,1.0,9.0,73,0.00,,,0.00,,2013-06-22 15:02:00,
2013-06-22 10:12:00,82.0,72.0,30.00,NE,49,1.0,9.0,73,0.00,,,0.00,,2013-06-22 15:12:00,
2013-06-22 10:34:00,83.0,72.0,30.01,East,96,1.0,6.0,70,0.00,,,0.00,,2013-06-22 15:34:00,
2013-06-22 10:43:00,83.0,72.0,30.01,East,96,1.0,6.0,70,0.00,,,0.00,,2013-06-22 15:43:00,
2013-06-22 10:53:00,84.0,73.0,30.00,WNW,286,0.0,6.0,70,0.00,,,0.00,,2013-06-22 15:53:00,
2013-06-22 11:02:00,83.0,72.0,30.01,NNE,32,1.0,11.0,70,0.00,,,0.00,,2013-06-22 16:02:00,
2013-06-22 11:12:00,83.0,72.0,30.01,NNE,32,1.0,11.0,70,0.00,,,0.00,,2013-06-22 16:12:00,
2013-06-22 11:22:00,84.0,73.0,30.01,NNW,348,1.0,5.0,70,0.00,,,0.00,,2013-06-22 16:22:00,
2013-06-22 11:34:00,84.0,73.0,30.01,West,273,1.0,8.0,70,0.00,,,0.00,,2013-06-22 16:34:00,
2013-06-22 11:43:00,84.0,73.0,30.01,West,273,1.0,8.0,70,0.00,,,0.00,,2013-06-22 16:43:00,
2013-06-22 11:52:00,85.0,74.0,30.01,NNW,336,0.0,6.0,69,0.00,,,0.00,,2013-06-22 16:52:00,
2013-06-22 12:02:00,86.0,74.0,30.01,ENE,65,1.0,8.0,67,0.00,,,0.00,,2013-06-22 17:02:00,
2013-06-22 12:11:00,86.0,74.0,30.01,ENE,65,1.0,8.0,67,0.00,,,0.00,,2013-06-22 17:11:00,
2013-06-22 12:22:00,85.0,73.0,30.00,NE,45,0.0,7.0,68,0.00,,,0.00,,2013-06-22 17:22:00,
2013-06-22 12:34:00,85.0,73.0,30.00,NE,45,0.0,7.0,68,0.00,,,0.00,,2013-06-22 17:34:00,
2013-06-22 12:43:00,85.0,73.0,30.00,NE,45,0.0,7.0,68,0.00,,,0.00,,2013-06-22 17:43:00,
2013-06-22 12:52:00,86.0,73.0,30.00,East,90,1.0,7.0,65,0.00,,,0.00,,2013-06-22 17:52:00,
2013-06-22 13:02:00,86.0,73.0,30.00,NE,51,2.0,6.0,65,0.00,,,0.00,,2013-06-22 18:02:00,
2013-06-22 13:12:00,86.0,73.0,30.00,NE,51,2.0,6.0,65,0.00,,,0.00,,2013-06-22 18:12:00,
2013-06-22 13:23:00,86.0,73.0,30.00,WNW,289,0.0,5.0,65,0.00,,,0.00,,2013-06-22 18:23:00,
2013-06-22 13:34:00,86.0,72.0,30.01,SSE,166,0.0,4.0,64,0.00,,,0.00,,2013-06-22 18:34:00,
2013-06-22 13:43:00,86.0,72.0,30.01,SSE,166,0.0,4.0,64,0.00,,,0.00,,2013-06-22 18:43:00,
2013-06-22 13:52:00,86.0,74.0,30.00,ENE,60,0.0,8.0,67,0.00,,,0.00,,2013-06-22 18:52:00,
2013-06-22 14:01:00,87.0,73.0,30.00,WNW,298,1.0,8.0,64,0.00,,,0.00,,2013-06-22 19:01:00,
2013-06-22 14:11:00,87.0,73.0,30.00,WNW,298,1.0,8.0,64,0.00,,,0.00,,2013-06-22 19:11:00,
2013-06-22 14:22:00,86.0,72.0,29.99,WNW,287,2.0,6.0,64,0.00,,,0.00,,2013-06-22 19:22:00,
2013-06-22 14:33:00,87.0,72.0,29.99,WSW,248,0.0,5.0,62,0.00,,,0.00,,2013-06-22 19:33:00,
2013-06-22 14:43:00,87.0,72.0,29.99,WSW,248,0.0,5.0,62,0.00,,,0.00,,2013-06-22 19:43:00,
2013-06-22 14:53:00,87.0,72.0,29.98,South,172,1.0,9.0,62,0.00,,,0.00,,2013-06-22 19:53:00,
2013-06-22 15:02:00,87.0,72.0,29.98,NE,49,2.0,5.0,62,0.00,,,0.00,,2013-06-22 20:02:00,
2013-06-22 15:11:00,87.0,72.0,29.98,NE,49,2.0,5.0,62,0.00,,,0.00,,2013-06-22 20:11:00,
2013-06-22 15:22:00,86.0,69.0,29.97,NE,42,2.0,6.0,57,0.00,,,0.00,,2013-06-22 20:22:00,
2013-06-22 15:33:00,86.0,71.0,29.96,WNW,283,1.0,5.0,62,0.00,,,0.00,,2013-06-22 20:33:00,
2013-06-22 15:43:00,86.0,71.0,29.96,WNW,283,1.0,5.0,62,0.00,,,0.00,,2013-06-22 20:43:00,
2013-06-22 15:53:00,86.0,71.0,29.95,ENE,57,0.0,5.0,61,0.00,,,0.00,,2013-06-22 20:53:00,
2013-06-22 16:01:00,86.0,71.0,29.94,West,272,0.0,2.0,61,0.00,,,0.00,,2013-06-22 21:01:00,
2013-06-22 16:11:00,86.0,71.0,29.94,West,272,0.0,2.0,61,0.00,,,0.00,,2013-06-22 21:11:00,
2013-06-22 16:22:00,86.0,70.0,29.93,NE,39,0.0,5.0,60,0.00,,,0.00,,2013-06-22 21:22:00,
2013-06-22 16:34:00,86.0,71.0,29.93,NE,46,0.0,6.0,62,0.00,,,0.00,,2013-06-22 21:34:00,
2013-06-22 16:43:00,86.0,71.0,29.93,NE,46,0.0,6.0,62,0.00,,,0.00,,2013-06-22 21:43:00,
2013-06-22 16:53:00,86.0,69.0,29.92,ENE,72,1.0,5.0,57,0.00,,,0.00,,2013-06-22 21:53:00,
2013-06-22 17:02:00,86.0,70.0,29.91,WNW,299,0.0,4.0,59,0.00,,,0.00,,2013-06-22 22:02:00,
2013-06-22 17:12:00,86.0,70.0,29.91,WNW,299,0.0,4.0,59,0.00,,,0.00,,2013-06-22 22:12:00,
2013-06-22 17:23:00,86.0,71.0,29.91,NNE,32,0.0,4.0,62,0.00,,,0.00,,2013-06-22 22:23:00,
2013-06-22 17:33:00,86.0,71.0,29.90,North,5,0.0,6.0,62,0.00,,,0.00,,2013-06-22 22:33:00,
2013-06-22 17:43:00,86.0,71.0,29.90,North,5,0.0,6.0,62,0.00,,,0.00,,2013-06-22 22:43:00,
2013-06-22 17:52:00,86.0,72.0,29.89,NE,42,0.0,2.0,64,0.00,,,0.00,,2013-06-22 22:52:00,
2013-06-22 18:01:00,86.0,73.0,29.89,NE,41,1.0,5.0,65,0.00,,,0.00,,2013-06-22 23:01:00,
2013-06-22 18:11:00,86.0,73.0,29.89,NE,41,1.0,5.0,65,0.00,,,0.00,,2013-06-22 23:11:00,
2013-06-22 18:22:00,86.0,72.0,29.89,WSW,254,0.0,5.0,63,0.00,,,0.00,,2013-06-22 23:22:00,
2013-06-22 18:34:00,86.0,72.0,29.89,NNW,343,0.0,4.0,64,0.00,,,0.00,,2013-06-22 23:34:00,
2013-06-22 18:43:00,86.0,72.0,29.89,NNW,343,0.0,4.0,64,0.00,,,0.00,,2013-06-22 23:43:00,
2013-06-22 18:52:00,85.0,71.0,29.89,NNE,13,0.0,1.0,64,0.00,,,0.00,,2013-06-22 23:52:00,
2013-06-22 19:01:00,85.0,72.0,29.88,SW,232,0.0,2.0,66,0.00,,,0.00,,2013-06-23 00:01:00,
2013-06-22 19:11:00,85.0,72.0,29.88,SW,232,0.0,2.0,66,0.00,,,0.00,,2013-06-23 00:11:00,
2013-06-22 19:22:00,84.0,71.0,29.88,West,265,0.0,2.0,65,0.00,,,0.00,,2013-06-23 00:22:00,
2013-06-22 19:33:00,84.0,71.0,29.88,West,265,0.0,2.0,65,0.00,,,0.00,,2013-06-23 00:33:00,
2013-06-22 19:42:00,84.0,72.0,29.88,North,355,0.0,1.0,68,0.00,,,0.00,,2013-06-23 00:42:00,
2013-06-22 19:53:00,84.0,72.0,29.88,North,355,0.0,1.0,68,0.00,,,0.00,,2013-06-23 00:53:00,
2013-06-22 20:01:00,83.0,70.0,29.88,NE,40,0.0,2.0,66,0.00,,,0.00,,2013-06-23 01:01:00,
2013-06-22 20:11:00,83.0,70.0,29.88,NE,40,0.0,2.0,66,0.00,,,0.00,,2013-06-23 01:11:00,
2013-06-22 20:22:00,83.0,70.0,29.88,NE,40,0.0,2.0,66,0.00,,,0.00,,2013-06-23 01:22:00,
2013-06-22 20:32:00,83.0,70.0,29.88,NE,40,0.0,2.0,66,0.00,,,0.00,,2013-06-23 01:32:00,
2013-06-22 20:42:00,83.0,70.0,29.88,NE,40,0.0,2.0,66,0.00,,,0.00,,2013-06-23 01:42:00,
2013-06-22 22:01:00,78.0,70.0,29.89,NE,42,0.0,1.0,77,0.00,,,0.00,,2013-06-23 03:01:00,
2013-06-22 22:11:00,78.0,70.0,29.89,NE,42,0.0,1.0,77,0.00,,,0.00,,2013-06-23 03:11:00,
2013-06-22 22:21:00,78.0,70.0,29.89,NE,42,0.0,1.0,77,0.00,,,0.00,,2013-06-23 03:21:00,
2013-06-22 22:31:00,78.0,70.0,29.89,NE,42,0.0,1.0,77,0.00,,,0.00,,2013-06-23 03:31:00,
2013-06-22 22:40:00,74.0,69.0,29.91,SE,140,0.0,0.0,85,0.00,,,0.00,,2013-06-23 03:40:00,
2013-06-22 22:41:00,78.0,70.0,29.89,NE,42,0.0,1.0,77,0.00,,,0.00,,2013-06-23 03:41:00,
2013-06-22 23:01:00,74.0,69.0,29.91,SE,140,0.0,0.0,85,0.00,,,0.00,,2013-06-23 04:01:00,
2013-06-22 23:11:00,74.0,69.0,29.91,SE,140,0.0,0.0,85,0.00,,,0.00,,2013-06-23 04:11:00,
2013-06-22 23:21:00,74.0,69.0,29.91,SE,140,0.0,0.0,85,0.00,,,0.00,,2013-06-23 04:21:00,
2013-06-22 23:31:00,74.0,69.0,29.91,SE,140,0.0,0.0,85,0.00,,,0.00,,2013-06-23 04:31:00,